This is the latest recevied weather packets stored in our database for station/object KM4KBD. If no packets are shown the sender has not sent any weather packets the latest 10 day(s).
| Time | Temp. | Humidity | Pressure | Rain* | Wind** | Luminosity | Snow |
|---|---|---|---|---|---|---|---|
| 1777957420 | 18.89° C | 59% | 1016.1 hPa | 0 mm | - | 0 W/m² | - |
| 1777957115 | 18.89° C | 59% | 1016.3 hPa | 0 mm | - | 0 W/m² | - |
| 1777956812 | 18.89° C | 59% | 1016.5 hPa | 0 mm | - | 0 W/m² | - |
| 1777956509 | 18.89° C | 58% | 1016.2 hPa | 0 mm | - | 0 W/m² | - |
| 1777956206 | 19.44° C | 57% | 1015.9 hPa | 0 mm | - | 0 W/m² | - |
| 1777955902 | 19.44° C | 57% | 1016.2 hPa | 0 mm | - | 0 W/m² | - |
| 1777955599 | 20° C | 56% | 1016.2 hPa | 0 mm | - | 0 W/m² | - |
| 1777955295 | 20° C | 55% | 1015.9 hPa | 0 mm | - | 0 W/m² | - |
| 1777954993 | 20° C | 55% | 1016.1 hPa | 0 mm | - | 0 W/m² | - |
| 1777954689 | 20° C | 55% | 1016.2 hPa | 0 mm | - | 0 W/m² | - |
| 1777954387 | 20.56° C | 55% | 1016.1 hPa | 0 mm | - | 0 W/m² | - |
| 1777954084 | 20.56° C | 54% | 1015.8 hPa | 0 mm | - | 0 W/m² | - |
| 1777943171 | 20.56° C | 55% | 1014.2 hPa | 0 mm | - | 0 W/m² | - |
| 1777942564 | 20.56° C | 54% | 1014.1 hPa | 0 mm | - | 0 W/m² | - |
| 1777940146 | 22.22° C | 52% | 1014.5 hPa | 0 mm | - | 7 W/m² | - |
| 1777939843 | 22.22° C | 52% | 1014.5 hPa | 0 mm | - | 10 W/m² | - |
| 1777939540 | 22.22° C | 52% | 1014.6 hPa | 0 mm | - | 12 W/m² | - |
| 1777939238 | 22.78° C | 51% | 1014.7 hPa | 0 mm | - | 14 W/m² | - |
| 1777937418 | 24.44° C | 48% | 1014.8 hPa | 0 mm | - | 58 W/m² | - |
| 1777934994 | 25° C | 45% | 1015.3 hPa | 0 mm | - | 144 W/m² | - |
| 1777931052 | 25° C | 46% | 1015.4 hPa | 0 mm | - | 258 W/m² | - |
| 1777930142 | 25° C | 45% | 1015.4 hPa | 0 mm | - | 341 W/m² | - |
| 1777929535 | 25° C | 45% | 1015.3 hPa | 0 mm | - | 331 W/m² | - |
| 1777929231 | 25° C | 46% | 1015.4 hPa | 0 mm | - | 355 W/m² | - |
| 1777928626 | 25° C | 45% | 1015.5 hPa | 0 mm | - | 413 W/m² | - |
* Rain latest hour (hover to see other rain measurements)
** Current wind speed in m/s (hover to see current wind gust speed)